This demonstration page uses our WeatherBlox Daily Observations layout. Learn more.

Left ArrowRight Arrow

Hourly Observations for January 11, 2016

Temp ( °F °C ) Dew Point ( °F °C ) Humidity (%) Winds ( mph kmh ) Pressure ( in mb ) Visibility ( mi km ) Precip ( " mm )
12:53 am 00:53 Clear 29 -1.7 20 -6.7 69 69 NNW 5 7 30.18 1022 10 16 0.00 0.00
1:53 am 01:53 Clear 28 -2.2 19 -7.2 69 69 NW 7 11 30.18 1022 10 16 0.00 0.00
2:53 am 02:53 Clear 27 -2.8 18 -7.8 69 69 VRB 5 7 30.19 1022 10 16 0.00 0.00
3:53 am 03:53 Clear 26 -3.3 17 -8.3 69 69 NW 7 11 30.21 1023 10 16 0.00 0.00
4:53 am 04:53 Clear 25 -3.9 16 -8.9 69 69 VRB 3 6 30.20 1023 10 16 0.00 0.00
5:53 am 05:53 Clear 24 -4.4 14 -10 65 65 N 8 13 30.21 1023 10 16 0.00 0.00
6:53 am 06:53 Clear 23 -5 13 -10.6 65 65 NNW 7 11 30.23 1024 10 16 0.00 0.00
7:53 am 07:53 Sunny 23 -5 13 -10.6 65 65 NNW 3 6 30.23 1024 10 16 0.00 0.00
8:53 am 08:53 Sunny 23 -5 13 -10.6 65 65 NW 6 9 30.24 1024 10 16 0.00 0.00
9:53 am 09:53 Sunny 26 -3.3 13 -10.6 57 57 VRB 5 7 30.26 1025 10 16 0.00 0.00
10:53 am 10:53 Sunny 31 -0.6 13 -10.6 47 47 NW 5 7 30.30 1026 10 16 0.00 0.00
11:53 am 11:53 Sunny 35 1.7 12 -11.1 38 38 WNW 7 11 30.28 1025 10 16 0.00 0.00
12:53 pm 12:53 Sunny 39 3.9 12 -11.1 33 33 VRB 5 7 30.24 1024 10 16 0.00 0.00
1:53 pm 13:53 Sunny 41 5 8 -13.3 25 25 WNW 8 13 30.20 1023 10 16 0.00 0.00
2:53 pm 14:53 Sunny 42 5.6 5 -15 21 21 VRB 6 9 30.19 1022 10 16 0.00 0.00
3:53 pm 15:53 Sunny 44 6.7 5 -15 20 20 NNW 5 7 30.18 1022 10 16 0.00 0.00
4:53 pm 16:53 Sunny 43 6.1 7 -13.9 22 22 NW 6 9 30.19 1022 10 16 0.00 0.00
5:53 pm 17:53 Clear 40 4.4 7 -13.9 25 25 WNW 6 9 30.19 1023 10 16 0.00 0.00
6:53 pm 18:53 Clear 37 2.8 12 -11.1 36 36 Calm 30.21 1023 10 16 0.00 0.00
7:53 pm 19:53 Clear 32 0 16 -8.9 52 52 Calm 30.22 1023 10 16 0.00 0.00
8:53 pm 20:53 Clear 30 -1.1 20 -6.7 66 66 Calm 30.22 1023 10 16 0.00 0.00
9:53 pm 21:53 Clear 30 -1.1 20 -6.7 66 66 Calm 30.22 1024 10 16 0.00 0.00
10:53 pm 22:53 Clear 28 -2.2 20 -6.7 72 72 Calm 30.23 1024 10 16 0.00 0.00
11:53 pm 23:53 Clear 29 -1.7 18 -7.8 63 63 Calm 30.21 1023 10 16 0.00 0.00

Powered by AerisWeather